Weather History for MHTG - October, 2012

Change the Weather History Date:

Monday, October 1, 2012

  Actual Average Record
Temperature  
Mean Temperature 72 °F -  
Max Temperature 85 °F 79 °F 86 °F (2006)
Min Temperature 60 °F 62 °F 59 °F (2013)
Cooling Degree Days 8    
Growing Degree Days 22 (Base 50)    
Moisture  
Dew Point 67 °F    
Average Humidity 89    
Maximum Humidity 100    
Minimum Humidity 46    
Precipitation  
Precipitation 1.38 in 0.14 in - ()
Sea Level Pressure  
Sea Level Pressure 29.94 in    
Wind  
Wind Speed 3 mph ()    
Max Wind Speed 17 mph    
Max Gust Speed 39 mph    
Visibility 5.3 miles    
Events Rain , Thunderstorm    
Averages and records for this station are not official NWS values.
T = Trace of Precipitation, MM = Missing Value Source: Averaged Metar Reports

Daily Weather History Graph

Daily Weather History Graph

Search for Another Location

Airport or City:

Trip Planner

Search our weather history database for the weather conditions in past years. The results will help you decide how hot, cold, wet, or windy it might be!

Date:

Astronomy

Oct. 01, 2012 Rise Set
Actual Time 5:38 AM CST 5:38 PM CST
Civil Twilight 5:17 AM CST 5:59 PM CST
Nautical Twilight 4:52 AM CST 6:24 PM CST
Astronomical Twilight 4:27 AM CST 6:48 PM CST
Moon 6:41 PM CST (10/1) 6:44 AM CST (10/1)
Length of Visible Light 12h 42m
Length of Day
11h 59m
Full, 97% of the Moon is Illuminated
Oct 1
Full
Oct 8
Last Quarter
Oct 15
New
Oct 21
First Quarter
Oct 29
Full

Hourly Weather History & Observations

Time (CST) Temp. Heat Index Dew Point Humidity Pressure Visibility Wind Dir Wind Speed Gust Speed Precip Events Conditions
12:00 AM 67 °F - 67 °F 100% 29.87 in 5 mi Calm Calm - - Thunderstorm Thunderstorm
12:00 AM 68.0 °F - 68.0 °F 100% 30.04 in 5.0 mi Calm Calm - N/A Thunderstorm Thunderstorm
1:00 AM 68.0 °F - 68.0 °F 100% 30.04 in 5.0 mi Calm Calm - N/A   Partly Cloudy
2:00 AM 66.2 °F - 66.2 °F 100% 30.04 in 6.2 mi Calm Calm - N/A   Mostly Cloudy
3:00 AM 64 °F - 64 °F 99% 29.83 in 6 mi Calm Calm - -   Mist
3:00 AM 64.4 °F - 64.4 °F 100% 29.98 in 6.2 mi Calm Calm - N/A   Scattered Clouds
4:00 AM 64.4 °F - 64.4 °F 100% 29.98 in 6.2 mi Calm Calm - N/A   Scattered Clouds
5:00 AM 60.8 °F - 60.8 °F 100% 29.98 in 6.2 mi Calm Calm - N/A   Partly Cloudy
6:00 AM 61 °F - 61 °F 100% 29.89 in 6 mi Calm Calm - -   Mist
6:00 AM 60.8 °F - 60.8 °F 100% 30.01 in 6.2 mi Calm Calm - N/A   Scattered Clouds
7:00 AM 64.4 °F - 64.4 °F 100% 30.01 in 6.2 mi Calm Calm - N/A   Scattered Clouds
9:00 AM 74 °F - 69 °F 78% 29.87 in 9 mi North 2.3 mph - -   Haze
9:00 AM 75.2 °F - 68.0 °F 78% 30.06 in 6.2 mi North 2.3 mph - N/A   Scattered Clouds
10:00 AM 77.0 °F - 68.0 °F 74% 30.06 in 6.2 mi Variable 2.3 mph - N/A   Scattered Clouds
11:00 AM 80.6 °F 83.2 °F 68.0 °F 65% 30.01 in 6.2 mi South 4.6 mph - N/A   Scattered Clouds
12:00 PM 83 °F - 66 °F 46% 29.73 in 9 mi 3.5 mph - -   Haze
12:00 PM 82.4 °F 84.6 °F 66.2 °F 58% 29.98 in 6.2 mi Variable 3.5 mph - N/A   Scattered Clouds
1:00 PM 82.4 °F 84.6 °F 66.2 °F 58% 29.95 in 6.2 mi SE 6.9 mph - N/A   Mostly Cloudy
1:24 PM 78.8 °F - 68.0 °F 69% 29.92 in 3.7 mi South 11.5 mph - N/A Rain Light Rain Showers
2:00 PM 71.6 °F - 69.8 °F 94% 29.92 in 3.7 mi ENE 10.4 mph 23.0 mph N/A Rain , Thunderstorm Thunderstorms and Rain
2:24 PM 71.6 °F - 69.8 °F 94% 29.92 in 1.9 mi ENE 8.1 mph - N/A Rain , Thunderstorm Rain Showers
2:37 PM 71.6 °F - 68.0 °F 88% 29.92 in 0.3 mi NE 12.7 mph 39.1 mph N/A Thunderstorm Heavy Thunderstorm
3:00 PM 69 °F - 65 °F 85% 29.75 in 2 mi North 17.3 mph - - Rain , Thunderstorm Thunderstorms and Rain
3:00 PM 69.8 °F - 66.2 °F 88% 29.92 in 2.5 mi North 11.5 mph 24.2 mph N/A Thunderstorm Thunderstorm
4:00 PM 71.6 °F - 71.6 °F 100% 29.95 in 4.3 mi NNW 5.8 mph - N/A Thunderstorm Thunderstorm
5:00 PM 71.6 °F - 71.6 °F 100% 29.95 in 6.2 mi Variable 2.3 mph - N/A Thunderstorm Thunderstorm
6:00 PM 70 °F - 68 °F 93% 29.76 in 6 mi SSE 3.5 mph - - Thunderstorm Light Thunderstorm
6:00 PM 69.8 °F - 68.0 °F 94% 29.92 in 6.2 mi SSE 3.5 mph - N/A   Mostly Cloudy
7:00 PM 69.8 °F - 68.0 °F 94% 29.95 in 6.2 mi SSW 5.8 mph - N/A   Scattered Clouds
8:00 PM 69.8 °F - 68.0 °F 94% 29.98 in 4.3 mi South 3.5 mph - N/A Thunderstorm Thunderstorm
9:00 PM 67 °F - 67 °F 99% 29.84 in 4 mi South 4.6 mph - - Rain , Thunderstorm Thunderstorms and Rain
9:00 PM 68.0 °F - 66.2 °F 94% 30.01 in 3.7 mi South 4.6 mph - N/A Rain , Thunderstorm Light Thunderstorms and Rain
10:00 PM 66.2 °F - 66.2 °F 100% 30.01 in 5.0 mi SSE 3.5 mph - N/A   Light Drizzle
11:00 PM 66.2 °F - 66.2 °F 100% 30.04 in 6.2 mi SSE 3.5 mph - N/A   Mostly Cloudy